STARLINK-36769

Last updated on Mon Mar 23 2026 00:02:07 GMT+0000 (Coordinated Universal Time)

1 67871U 26034X 26080.91799004 .00546215 00000+0 25777-2 0 9991 2 67871 53.1580 149.8951 0001901 60.7290 299.3922 15.81058930 5871
UTC large
Height (km)
Speed (km/s)
/
Latitude / Longitude
Inclination (degrees)
Orbital Period (minutes)
Azimuth
Elevation
Range (km)
Doppler Factor

Next 0 passes for location: London (51.5072 / 0.1276)

Sorry there are no passes over London.